NI4CE-10 Weather Reports


time (UTC)temp
C
wind
direction
speed
KPH
gust
KPH
rain 1hr
cm
rain 24hr
cm
rain mn
cm
humidity
%
barometer
mb
20260901201300 28 70 0.0 0.0 0.36 3.15 0.36 100 1016.5
20260901200800 28 70 0.0 0.0 0.36 3.15 0.36 100 1016.5
20260901200301 28 70 0.0 4.8 0.36 3.15 0.36 100 1016.5
20260901195801 28 120 3.2 6.4 0.36 3.15 0.36 100 1016.7
20260901195301 28 98 4.8 11.3 0.36 3.15 0.36 100 1016.8
20260901194801 27 90 6.4 11.3 0.36 3.15 0.36 100 1016.8
20260901194301 27 71 9.7 17.7 0.33 3.12 0.33 100 1016.8
20260901193801 27 78 11.3 17.7 0.28 3.07 0.28 100 1016.7
20260901193301 27 45 11.3 25.7 0.23 3.02 0.23 100 1016.9
20260901192801 28 95 11.3 17.7 0.15 2.95 0.15 100 1017.1
20260901192301 28 33 8.0 27.4 0.10 2.90 0.10 100 1017.0
20260901191801 28 39 17.7 24.1 0.05 2.84 0.05 100 1017.0
20260901191301 31 67 22.5 29.0 0.00 2.79 0.00 100 1016.8
20260901190801 33 73 6.4 32.2 0.00 2.79 0.00 100 1016.8
20260901190301 35 30 3.2 11.3 0.00 2.79 0.00 100 1016.7
20260901190046 35 26 8.0 11.3 0.00 2.79 0.00 100 1016.7
20260901185801 35 26 8.0 11.3 0.00 2.79 0.00 100 1016.7
20260901185301 35 77 3.2 12.9 0.00 2.79 0.00 100 1016.7
20260901184801 35 28 3.2 9.7 0.00 2.79 0.00 100 1016.8
20260901184301 35 1 0.0 14.5 0.00 2.79 0.00 100 1017.0
20260901183801 35 80 4.8 9.7 0.00 2.79 0.00 100 1017.0
20260901183301 35 59 0.0 8.0 0.00 2.79 0.00 100 1017.1
20260901182801 35 30 4.8 14.5 0.00 2.79 0.00 100 1017.0
20260901182305 36 9 6.4 11.3 0.00 2.79 0.00 100 1017.1
20260901182014 38 75 1.6 16.1 0.00 2.79 0.00 100 1017.2
20260901181801 38 75 1.6 16.1 0.00 2.79 0.00 100 1017.2
20260901181301 39 357 9.7 17.7 0.00 2.79 0.00 100 1017.3
20260901180801 40 23 14.5 14.5 0.00 2.79 0.00 100 1017.3
20260901180301 43 21 0.0 17.7 0.00 2.79 0.00 100 1017.4
20260901175801 40 9 8.0 14.5 0.00 2.79 0.00 100 1017.4
20260901175301 40 7 4.8 16.1 0.00 2.79 0.00 100 1017.5
20260901174801 40 39 3.2 9.7 0.00 2.79 0.00 100 1017.6
20260901174301 41 28 6.4 14.5 0.00 2.79 0.00 100 1017.7
20260901173801 41 28 6.4 14.5 0.00 2.79 0.00 100 1017.7
20260901173301 46 334 4.8 11.3 0.00 2.79 0.00 100 1017.7
20260901172801 45 348 1.6 9.7 0.00 2.79 0.00 100 1017.8
20260901172304 44 1 4.8 8.0 0.00 2.79 0.00 100 1017.8
20260901172129 41 36 4.8 14.5 0.00 2.79 0.00 100 1017.9
20260901171801 41 36 4.8 14.5 0.00 2.79 0.00 100 1017.9
20260901171301 49 338 12.9 14.5 0.00 2.79 0.00 100 1018.0
20260901171127 48 56 6.4 11.3 0.00 2.79 0.00 100 1018.0
20260901170801 48 56 6.4 11.3 0.00 2.79 0.00 100 1018.0
20260901170301 47 277 1.6 11.3 0.00 2.79 0.00 100 1018.0
20260901165801 42 358 9.7 16.1 0.00 2.79 0.00 100 1018.1
20260901165301 46 344 14.5 14.5 0.00 2.79 0.00 100 1018.1
20260901164801 48 82 3.2 12.9 0.00 2.79 0.00 100 1018.2
20260901164301 47 7 9.7 17.7 0.00 2.79 0.00 100 1018.3
20260901163801 47 50 9.7 19.3 0.00 2.79 0.00 100 1018.3
20260901163301 46 56 1.6 12.9 0.00 2.79 0.00 100 1018.4
20260901162937 45 56 8.0 9.7 0.00 2.79 0.00 100 1018.4
20260901162801 45 56 8.0 9.7 0.00 2.79 0.00 100 1018.4
20260901162305 43 142 3.2 9.7 0.00 2.79 0.00 100 1018.5
20260901161801 45 85 4.8 11.3 0.00 2.79 0.00 100 1018.5
20260901161302 44 50 6.4 14.5 0.00 2.79 0.00 100 1018.6
20260901160802 42 22 4.8 14.5 0.00 2.79 0.00 100 1018.6
20260901160302 37 16 8.0 14.5 0.00 2.79 0.00 100 1018.6
20260901155802 35 52 0.0 6.4 0.00 2.79 0.00 100 1018.7
20260901155302 35 8 3.2 12.9 0.00 2.79 0.00 100 1018.8
20260901154802 37 23 8.0 11.3 0.00 2.79 0.00 100 1018.8
20260901154302 36 358 9.7 12.9 0.00 2.79 0.00 100 1018.8
20260901153802 36 50 3.2 11.3 0.00 2.79 0.00 100 1018.8
20260901153302 39 358 8.0 11.3 0.00 2.79 0.00 100 1018.7
20260901153130 36 18 9.7 9.7 0.00 2.79 0.00 100 1018.8
20260901152802 36 18 9.7 9.7 0.00 2.79 0.00 100 1018.8
20260901152305 35 32 8.0 12.9 0.00 2.79 0.00 100 1018.7
20260901152027 36 54 8.0 9.7 0.00 2.79 0.00 100 1018.8
20260901151802 36 54 8.0 9.7 0.00 2.79 0.00 100 1018.8
20260901151302 35 358 9.7 12.9 0.00 2.79 0.00 100 1018.9
20260901150959 34 343 9.7 9.7 0.00 2.79 0.00 100 1018.9
20260901150802 34 343 9.7 9.7 0.00 2.79 0.00 100 1018.9
20260901150302 33 37 1.6 8.0 0.00 2.79 0.00 100 1018.8
20260901145802 33 22 6.4 11.3 0.00 2.79 0.00 100 1018.8
20260901145306 32 21 8.0 8.0 0.00 2.79 0.00 100 1018.8
20260901145026 32 57 0.0 8.0 0.00 2.79 0.00 100 1018.8
20260901144802 32 57 0.0 8.0 0.00 2.79 0.00 100 1018.8
20260901144302 32 7 0.0 4.8 0.00 2.79 0.00 100 1018.8
20260901143802 31 23 4.8 9.7 0.00 2.79 0.00 100 1018.8
20260901143302 31 80 0.0 4.8 0.00 2.79 0.00 100 1018.6
20260901142802 30 42 1.6 9.7 0.00 2.79 0.00 100 1018.5
20260901142305 32 53 6.4 11.3 0.00 2.79 0.00 100 1018.5
20260901142129 32 64 6.4 14.5 0.00 2.79 0.00 100 1018.5
20260901141802 32 64 6.4 14.5 0.00 2.79 0.00 100 1018.5
20260901141302 32 116 6.4 12.9 0.00 2.79 0.00 100 1018.5
20260901140802 31 67 6.4 12.9 0.00 2.79 0.00 100 1018.5
20260901140302 31 118 3.2 9.7 0.00 2.79 0.00 100 1018.4
20260901140012 28 61 6.4 9.7 0.00 2.79 0.00 100 1018.3
20260901135802 28 61 6.4 9.7 0.00 2.79 0.00 100 1018.3
20260901135305 28 101 4.8 9.7 0.00 2.79 0.00 100 1018.4
20260901135043 30 104 6.4 9.7 0.00 2.79 0.00 100 1018.4
20260901134802 30 104 6.4 9.7 0.00 2.79 0.00 100 1018.4
20260901134302 30 53 6.4 8.0 0.00 2.79 0.00 100 1018.4
20260901133802 30 77 6.4 8.0 0.00 2.79 0.00 100 1018.3
20260901133302 30 95 3.2 11.3 0.00 2.79 0.00 100 1018.2
20260901133103 30 40 3.2 9.7 0.00 2.79 0.00 100 1018.0
20260901132802 30 40 3.2 9.7 0.00 2.79 0.00 100 1018.0
20260901132306 29 50 6.4 8.0 0.00 2.79 0.00 100 1018.1
20260901131802 28 85 1.6 9.7 0.00 2.79 0.00 100 1018.1
20260901131302 29 53 4.8 6.4 0.00 2.79 0.00 100 1018.0
20260901131055 27 53 3.2 8.0 0.00 2.79 0.00 100 1017.9
20260901130802 27 53 3.2 8.0 0.00 2.79 0.00 100 1017.9
20260901130302 27 71 4.8 8.0 0.00 2.79 0.00 100 1017.9
20260901130043 27 53 1.6 8.0 0.00 2.79 0.00 100 1017.9
20260901125802 27 53 1.6 8.0 0.00 2.79 0.00 100 1017.9
20260901125308 27 30 0.0 6.4 0.00 2.79 0.00 100 1017.9
20260901124802 27 26 0.0 4.8 0.00 2.79 0.00 100 1018.0
20260901124302 27 21 3.2 3.2 0.00 2.79 0.00 100 1018.0
20260901123921 26 35 0.0 4.8 0.00 2.79 0.00 100 1018.0
20260901123802 26 35 0.0 4.8 0.00 2.79 0.00 100 1018.0
20260901123302 26 23 0.0 6.4 0.00 2.79 0.00 100 1017.9
20260901122802 25 29 0.0 0.0 0.00 2.79 0.00 100 1017.8
20260901122306 25 29 0.0 3.2 0.00 2.79 0.00 100 1017.8
20260901121802 25 28 0.0 3.2 0.00 2.79 0.00 100 1017.8
20260901121302 25 36 1.6 6.4 0.00 2.79 0.00 100 1017.8
20260901121015 25 29 0.0 8.0 0.00 2.79 0.00 100 1017.7
20260901120803 25 29 0.0 8.0 0.00 2.79 0.00 100 1017.7
20260901120303 25 15 0.0 4.8 0.00 2.79 0.00 100 1017.7
20260901115803 25 8 0.0 6.4 0.00 2.79 0.00 100 1017.7
20260901115306 25 52 0.0 6.4 0.00 2.79 0.00 100 1017.7
20260901114803 25 7 0.0 0.0 0.00 2.79 0.00 100 1017.6
20260901114303 25 7 0.0 1.6 0.00 2.79 0.00 100 1017.5
20260901113803 24 7 1.6 1.6 0.00 2.79 0.00 100 1017.5
20260901113303 24 54 1.6 3.2 0.00 2.79 0.00 100 1017.4
20260901112844 24 61 0.0 1.6 0.00 2.79 0.00 100 1017.4
20260901112803 24 61 0.0 1.6 0.00 2.79 0.00 100 1017.4
20260901112306 24 45 0.0 0.0 0.00 2.79 0.00 100 1017.3
20260901112055 24 45 0.0 0.0 0.00 2.79 0.00 100 1017.3
20260901111803 24 45 0.0 0.0 0.00 2.79 0.00 100 1017.3
20260901111303 24 45 0.0 0.0 0.00 2.79 0.00 100 1017.2
20260901110803 24 45 0.0 0.0 0.00 2.79 0.00 100 1017.2
20260901110303 24 45 0.0 0.0 0.00 2.79 0.00 100 1017.2
20260901105803 24 45 0.0 0.0 0.00 2.79 0.00 100 1017.1
20260901105305 24 45 0.0 0.0 0.00 2.79 0.00 100 1017.2
20260901105054 24 45 0.0 0.0 0.00 2.79 0.00 100 1017.2
20260901104803 24 45 0.0 0.0 0.00 2.79 0.00 100 1017.2
20260901104303 24 45 0.0 0.0 0.00 2.79 0.00 100 1017.1
20260901103803 24 45 0.0 0.0 0.00 2.79 0.00 100 1017.1
20260901103303 24 45 0.0 0.0 0.00 2.79 0.00 100 1017.1
20260901103215 24 45 0.0 0.0 0.00 2.79 0.00 100 1017.0
20260901102847 24 45 0.0 0.0 0.00 2.79 0.00 100 1017.0
20260901102803 24 45 0.0 0.0 0.00 2.79 0.00 100 1017.0
20260901102306 24 45 0.0 0.0 0.00 2.79 0.00 100 1017.0
20260901101803 24 45 0.0 0.0 0.00 2.79 0.00 100 1017.0
20260901101303 24 45 0.0 0.0 0.00 2.79 0.00 100 1017.0
20260901100803 24 45 0.0 0.0 0.00 2.79 0.00 100 1017.0
20260901100303 24 45 0.0 0.0 0.00 2.79 0.00 100 1017.0
20260901095803 24 45 0.0 0.0 0.00 2.79 0.00 100 1017.0
20260901095306 24 45 0.0 1.6 0.00 2.79 0.00 100 1016.9
20260901095114 24 45 0.0 3.2 0.00 2.79 0.00 100 1016.9
20260901094803 24 45 0.0 3.2 0.00 2.79 0.00 100 1016.9
20260901094303 24 67 0.0 0.0 0.00 2.79 0.00 100 1016.9
20260901093803 24 67 0.0 0.0 0.00 2.79 0.00 100 1016.9
20260901093303 24 67 0.0 0.0 0.00 2.79 0.00 100 1016.9
20260901093055 24 67 0.0 0.0 0.00 2.79 0.00 100 1016.8
20260901092803 24 67 0.0 0.0 0.00 2.79 0.00 100 1016.8
20260901092305 24 67 0.0 0.0 0.00 2.79 0.00 100 1016.9
20260901091803 24 67 0.0 0.0 0.00 2.79 0.00 100 1016.8
20260901091303 24 67 0.0 0.0 0.00 2.79 0.00 100 1016.8
20260901090803 24 67 0.0 0.0 0.00 2.79 0.00 100 1016.8
20260901090303 24 67 0.0 0.0 0.00 2.79 0.00 100 1016.8
20260901085803 24 67 0.0 0.0 0.00 2.79 0.00 100 1016.8
20260901085305 24 67 0.0 0.0 0.00 2.79 0.00 100 1016.7
20260901085029 24 67 0.0 0.0 0.00 2.79 0.00 100 1016.8
20260901084803 24 67 0.0 0.0 0.00 2.79 0.00 100 1016.8
20260901084303 24 67 0.0 0.0 0.00 2.79 0.00 100 1016.7
20260901083803 24 67 0.0 0.0 0.00 2.79 0.00 100 1016.6
20260901083303 24 67 0.0 0.0 0.00 2.79 0.00 100 1016.7
20260901082803 24 67 0.0 0.0 0.00 2.79 0.00 100 1016.7
20260901082306 24 67 0.0 0.0 0.00 2.79 0.00 100 1016.8
20260901081803 24 67 0.0 0.0 0.00 2.79 0.00 100 1016.8
20260901081304 25 67 0.0 0.0 0.00 2.79 0.00 100 1016.7
20260901081038 24 67 0.0 0.0 0.00 2.79 0.00 100 1016.7
20260901080804 24 67 0.0 0.0 0.00 2.79 0.00 100 1016.7
20260901080633 25 67 0.0 1.6 0.00 2.79 0.00 100 1016.7
20260901080304 25 67 0.0 1.6 0.00 2.79 0.00 100 1016.7
20260901075804 25 56 1.6 1.6 0.00 2.79 0.00 100 1016.7
20260901075307 25 45 0.0 0.0 0.00 2.79 0.00 100 1016.7
20260901075035 25 45 0.0 0.0 0.00 2.79 0.00 100 1016.6
20260901074804 25 45 0.0 0.0 0.00 2.79 0.00 100 1016.6
20260901074304 24 45 0.0 0.0 0.00 2.79 0.00 100 1016.6
20260901073804 25 45 0.0 0.0 0.00 2.79 0.00 100 1016.7
20260901073304 25 45 0.0 3.2 0.00 2.79 0.00 100 1016.7
20260901072804 25 54 3.2 4.8 0.00 2.79 0.00 100 1016.7
20260901072308 25 40 0.0 1.6 0.00 2.79 0.00 100 1016.8
20260901071804 25 32 0.0 0.0 0.00 2.79 0.00 100 1016.7
20260901071304 25 32 0.0 0.0 0.00 2.79 0.00 100 1016.8
20260901071034 25 32 0.0 0.0 0.00 2.79 0.00 100 1016.9
20260901070804 25 32 0.0 0.0 0.00 2.79 0.00 100 1016.9
20260901070304 25 32 0.0 3.2 0.00 2.79 0.00 100 1017.0
20260901065804 25 43 1.6 6.4 0.00 2.79 0.00 100 1017.2
20260901065305 25 45 0.0 1.6 0.00 2.79 0.00 100 1017.1
20260901065204 25 26 0.0 1.6 0.00 2.79 0.00 100 1017.1
20260901064804 25 26 0.0 1.6 0.00 2.79 0.00 100 1017.1
20260901064304 25 26 0.0 3.2 0.00 2.79 0.00 100 1017.2
20260901063804 25 35 0.0 1.6 0.00 2.79 0.00 100 1017.3
20260901063304 25 19 0.0 6.4 0.00 2.79 0.00 100 1017.4
20260901062804 25 8 0.0 11.3 0.00 2.79 0.00 100 1017.4
20260901062309 25 40 8.0 8.0 0.00 2.79 0.00 100 1017.4
20260901061804 25 43 0.0 8.0 0.00 2.79 0.00 100 1017.5
20260901061304 25 30 3.2 6.4 0.00 2.79 0.00 100 1017.5
20260901060804 25 39 1.6 4.8 0.00 2.79 0.00 100 1017.5
20260901060304 25 42 1.6 6.4 0.00 2.79 0.00 100 1017.6
20260901060039 25 18 6.4 6.4 0.00 2.79 0.00 100 1017.6
20260901055804 25 18 6.4 6.4 0.00 2.79 0.00 100 1017.6
20260901055306 25 16 0.0 0.0 0.00 2.79 0.00 100 1017.7
20260901055214 25 16 0.0 0.0 0.00 2.79 0.00 100 1017.8
20260901054804 25 16 0.0 0.0 0.00 2.79 0.00 100 1017.8
20260901054304 25 16 0.0 0.0 0.00 2.79 0.00 100 1017.9
20260901053804 25 15 0.0 0.0 0.00 2.79 0.00 100 1018.0
20260901053304 25 15 0.0 0.0 0.00 2.79 0.00 100 1018.0
20260901052804 25 15 0.0 0.0 0.00 2.79 0.00 100 1018.1
20260901052307 25 15 0.0 0.0 0.00 2.79 0.00 100 1018.2
20260901052137 25 15 0.0 0.0 0.00 2.79 0.00 100 1018.2
20260901051804 25 15 0.0 0.0 0.00 2.79 0.00 100 1018.2
20260901051304 25 15 0.0 0.0 0.00 2.79 0.00 100 1018.3
20260901050804 25 15 0.0 0.0 0.00 2.79 0.00 100 1018.4
20260901050304 25 15 0.0 0.0 0.00 2.79 0.00 100 1018.5
20260901045804 25 15 0.0 4.8 0.00 2.79 0.00 100 1018.6
20260901045347 25 70 0.0 0.0 0.00 2.79 2.79 100 1018.6
20260901045306 25 70 0.0 0.0 0.00 2.79 2.79 100 1018.6
20260901045125 25 70 0.0 0.0 0.00 2.79 2.79 100 1018.6
20260901044804 25 70 0.0 0.0 0.00 2.79 2.79 100 1018.6
20260901044304 25 70 0.0 0.0 0.00 2.79 2.79 100 1018.6
20260901043804 25 70 0.0 0.0 0.00 2.79 2.79 100 1018.6
20260901043304 25 70 0.0 0.0 0.00 2.79 2.79 100 1018.7
20260901042804 25 70 0.0 0.0 0.00 2.79 2.79 100 1018.6
20260901042306 25 70 0.0 0.0 0.00 2.79 2.79 100 1018.7
20260901041805 25 70 0.0 0.0 0.00 2.79 2.79 100 1018.7
20260901041305 25 70 0.0 0.0 0.00 2.79 2.79 100 1018.6
20260901040805 25 70 0.0 0.0 0.00 2.79 2.79 100 1018.7
20260901040305 25 70 0.0 0.0 0.00 2.79 2.79 100 1018.7
20260901035805 25 70 0.0 0.0 0.00 2.79 2.79 100 1018.7
20260901035306 25 70 0.0 0.0 0.00 2.79 2.79 100 1018.7
20260901034805 25 70 0.0 0.0 0.00 2.79 2.79 100 1018.8
20260901034305 25 70 0.0 0.0 0.00 2.79 2.79 100 1018.8
20260901033805 25 70 0.0 0.0 0.00 2.79 2.79 100 1018.8
20260901033305 25 70 0.0 0.0 0.00 2.79 2.79 100 1018.8
20260901032805 25 70 0.0 0.0 0.00 2.79 2.79 100 1018.8
20260901032306 25 70 0.0 0.0 0.00 2.79 2.79 100 1018.9
20260901031805 25 70 0.0 0.0 0.00 2.79 2.79 100 1018.8
20260901031305 25 70 0.0 0.0 0.00 2.79 2.79 100 1018.9
20260901030805 25 70 0.0 0.0 0.00 2.79 2.79 100 1018.7
20260901030305 25 70 0.0 0.0 0.00 2.79 2.79 100 1018.7
20260901030135 25 70 0.0 0.0 0.00 2.79 2.79 100 1018.7
20260901025805 25 70 0.0 0.0 0.00 2.79 2.79 100 1018.7
20260901025306 25 70 0.0 0.0 0.00 2.79 2.79 100 1018.8
20260901024805 25 70 0.0 0.0 0.00 2.79 2.79 100 1018.7
20260901024305 25 70 0.0 0.0 0.00 2.79 2.79 100 1018.7
20260901023805 26 70 0.0 0.0 0.00 2.79 2.79 100 1018.7
20260901023305 26 70 0.0 0.0 0.00 2.79 2.79 100 1018.7
20260901022805 26 70 0.0 0.0 0.00 2.79 2.79 100 1018.8
20260901022306 26 70 0.0 0.0 0.00 2.79 2.79 100 1018.8
20260901021805 26 70 0.0 0.0 0.00 2.79 2.79 100 1018.8
20260901021305 26 70 0.0 0.0 0.00 2.79 2.79 100 1018.7
20260901020805 26 70 0.0 0.0 0.00 2.79 2.79 100 1018.6
20260901020305 26 70 0.0 0.0 0.00 2.79 2.79 100 1018.5
20260901020128 26 70 0.0 0.0 0.00 2.79 2.79 100 1018.4
20260901015805 26 70 0.0 0.0 0.00 2.79 2.79 100 1018.4
20260901015306 26 70 0.0 0.0 0.00 2.79 2.79 100 1018.5
20260901014805 26 70 0.0 0.0 0.00 2.79 2.79 100 1018.4
20260901014601 26 70 0.0 0.0 0.00 2.79 2.79 100 1018.5
20260901014305 26 70 0.0 0.0 0.00 2.79 2.79 100 1018.5
20260901013805 26 70 0.0 0.0 0.03 2.79 2.79 100 1018.4
20260901013305 26 70 0.0 0.0 0.03 2.79 2.79 100 1018.4
20260901012805 26 70 0.0 0.0 0.03 2.79 2.79 100 1018.4
20260901012306 26 70 0.0 0.0 0.03 2.79 2.79 100 1018.4
20260901011805 26 70 0.0 0.0 0.03 2.79 2.79 100 1018.5
20260901011305 26 70 0.0 0.0 0.05 2.79 2.79 100 1018.5
20260901010805 26 70 0.0 0.0 0.08 2.79 2.79 100 1018.3
20260901010305 26 70 0.0 0.0 0.10 2.79 2.79 100 1018.3
20260901005805 26 70 0.0 0.0 0.10 2.79 2.79 100 1018.3
20260901005307 26 70 0.0 0.0 0.10 2.79 2.79 100 1018.2
20260901004805 26 70 0.0 0.0 0.10 2.79 2.79 100 1018.2
20260901004305 26 70 0.0 0.0 0.10 2.79 2.79 100 1018.2
20260901003805 26 70 0.0 0.0 0.08 2.77 2.77 100 1018.0
20260901003305 26 70 0.0 0.0 0.08 2.77 2.77 100 1017.9
20260901002805 26 70 0.0 0.0 0.08 2.77 2.77 100 1018.1
20260901002306 26 70 0.0 0.0 0.08 2.77 2.77 100 1017.8
20260901001806 26 70 0.0 0.0 0.08 2.77 2.77 100 1017.9
20260901001306 26 70 0.0 0.0 0.05 2.74 2.74 100 1017.9
20260901000805 26 70 0.0 0.0 0.03 2.72 2.72 100 1018.0
20260901000306 26 70 0.0 0.0 0.00 2.69 2.69 100 1018.1
20260901000155 26 70 0.0 0.0 0.00 2.69 2.69 100 1018.0
20260831235806 26 70 0.0 0.0 0.00 2.69 2.69 100 1018.0
20260831235306 26 70 0.0 0.0 0.00 2.69 2.69 100 1017.9
20260831234806 26 70 0.0 0.0 0.03 2.69 2.69 100 1017.8
20260831234306 26 70 0.0 0.0 0.03 2.69 2.69 100 1017.9
20260831233806 26 70 0.0 0.0 0.03 2.69 2.69 100 1017.9
20260831233306 26 70 0.0 0.0 0.03 2.69 2.69 100 1018.0
20260831233203 26 70 0.0 0.0 0.05 2.69 2.69 100 1018.2
20260831232806 26 70 0.0 0.0 0.05 2.69 2.69 100 1018.2
20260831232306 26 70 0.0 0.0 0.08 2.69 2.69 100 1018.3
20260831231806 26 70 0.0 0.0 0.15 2.69 2.69 100 1018.3
20260831231306 26 70 0.0 0.0 0.33 2.69 2.69 100 1018.3
20260831230806 26 70 0.0 0.0 0.56 2.69 2.69 100 1018.3
20260831230306 26 70 0.0 0.0 0.71 2.72 2.69 100 1018.4
20260831225806 26 70 0.0 0.0 1.02 2.72 2.69 100 1018.5
20260831225306 26 70 0.0 0.0 1.40 2.72 2.69 100 1018.5
20260831224806 26 70 0.0 6.4 1.70 2.69 2.67 100 1018.4
20260831224306 26 35 0.0 6.4 1.98 2.69 2.67 100 1018.4
20260831223806 26 87 0.0 8.0 2.36 2.69 2.67 100 1018.3
20260831223306 26 88 6.4 9.7 2.67 2.69 2.67 100 1018.3
20260831222806 26 84 6.4 9.7 2.64 2.67 2.64 100 1018.1
20260831222306 26 56 0.0 11.3 2.62 2.64 2.62 100 1018.0
20260831221806 25 82 6.4 19.3 2.54 2.57 2.54 100 1017.8
20260831221306 25 102 12.9 12.9 2.36 2.39 2.36 100 1018.0
20260831220806 25 88 4.8 17.7 2.13 2.16 2.13 100 1018.0
20260831220306 25 101 17.7 22.5 1.98 2.01 1.98 100 1017.9
20260831215806 25 102 9.7 17.7 1.68 1.70 1.68 100 1017.9
20260831215306 25 74 14.5 24.1 1.30 1.32 1.30 100 1018.0
20260831214806 25 133 11.3 24.1 0.97 0.99 0.97 100 1018.0
20260831214306 26 59 9.7 24.1 0.69 0.71 0.69 100 1018.0
20260831213806 26 88 16.1 16.1 0.30 0.33 0.30 100 1018.0
20260831213306 27 82 14.5 17.7 0.00 0.03 0.00 100 1017.7
20260831212806 26 68 14.5 29.0 0.00 0.03 0.00 100 1017.7
20260831212307 29 57 19.3 25.7 0.00 0.03 0.00 100 1017.6
20260831211806 30 64 9.7 20.9 0.00 0.03 0.00 100 1017.5
20260831211306 32 101 3.2 8.0 0.00 0.03 0.00 100 1017.1
20260831210806 32 16 6.4 17.7 0.00 0.03 0.00 100 1017.0
20260831210306 32 326 6.4 17.7 0.00 0.13 0.00 100 1016.8
20260831205806 33 291 6.4 20.9 0.00 0.13 0.00 100 1016.8
20260831205306 33 317 6.4 17.7 0.00 0.13 0.00 100 1016.7
20260831204806 33 265 11.3 16.1 0.00 0.13 0.00 100 1016.9
20260831204306 33 341 9.7 20.9 0.00 0.13 0.00 100 1016.9
20260831203806 33 310 14.5 25.7 0.00 0.13 0.00 100 1016.8
20260831203307 33 299 8.0 14.5 0.00 0.13 0.00 100 1016.7
20260831202807 32 270 9.7 20.9 0.00 0.13 0.00 100 1016.8
20260831202306 32 307 11.3 19.3 0.00 0.13 0.00 100 1016.9
20260831201807 32 313 1.6 12.9 0.00 0.13 0.00 100 1016.9